User: anonymous   Login
Location: Newark
(53.3333°N, 83.7500°E)
Time: 15:05:00
(UTC+00:00)
Language:

deb Explorer IX - Orbit

View from above orbital plane
View from above orbital plane
View from above satellite
View from above satellite

Ground track
Ground track

The orbit data is extracted from the following two-line orbital elements,

1    85U 61004C   19318.29779364  .00001211  00000-0  28468-3 0  9999
2    85  38.7721  43.0299 0387697 139.4676 223.5628 14.19941262900338
Epoch (UTC): 14 November 2019 07:08:49
Eccentricity: 0.0387697
inclination: 38.7721°
perigee height: 546 km
apogee height: 1105 km
right ascension of ascending node: 43.0299°
argument of perigee: 139.4676°
revolutions per day: 14.19941262
mean anomaly at epoch: 223.5628°
orbit number at epoch: 90033

The dashed part of the orbit path shows where the satellite is in the earth's shadow,  

DLR